Location: Newark
(47.5833°N, 8.1500°E)
Time: 08:18:50
(UTC+00:00)

Vanguard 1 - Pass Details

Date: 02 November 2020
Orbit: 650 x 3833 km, 34.2° (Epoch: 29 November)

Event Time Altitude Azimuth Distance (km) Brightness Sun altitude
Rises 13:20:38 0° 257° (WSW) 7,492 15.3 21.0°
Reaches altitude 10° 13:25:31 10° 254° (WSW) 6,692 15.2 20.6°
Maximum altitude 13:47:45 56° 185° (S) 4,149 14.0 18.3°
Drops below altitude 10° 14:06:09 10° 114° (ESE) 5,669 13.8 16.2°
Sets 14:09:52 0° 110° (ESE) 6,339 14.0 15.8°
